Location: *
(50.5492°N, 7.7469°E)
Time: 12:12:41
(UTC+00:00)

STARLINK-24 - Pass Details

Date: 21 October 2019
Orbit: 550 x 552 km, 53.0° (Epoch: 20 November)

Event Time Altitude Azimuth Distance (km) Brightness Sun altitude
Rises 17:26:06 0° 271° (W) 2,721 9.4 -10.3°
Reaches altitude 10° 17:28:22 10° 275° (W) 1,828 7.8 -10.6°
Maximum altitude 17:32:29 61° 356° (N) 629 3.9 -11.3°
Enters shadow 17:35:34 17° 74° (ENE) 1,433 5.1 -11.8°
